Flag for Germany Weather past 2 weeks in Sindelfingen, Baden-Württemberg, Germany

Now
50 °F

Partly cloudy.


Feels Like: 50 °F
Forecast: 41 / 57 °F
Wind: 1 mph from East

Location: Stuttgart-Echterdingen

Current Time: Oct 26, 2014 at 6:31:42 AM

Latest Report: Oct 26, 2014 at 5:50 AM


Visibility: N/A

Pressure: 30.27 "Hg

Humidity: 94%

Dew point: 48 °F

Location of SindelfingenLocation

Historic Weather in Sindelfingen — Graph

°F

Sindelfingen temperature yesterday

Maximum temperature yesterday: 55 °F (at 1:20 PM)
Minimum temperature yesterday: 43 °F (at 12:20 AM)
Average temperature yesterday: 49 °F

Past Weeks' High & Low Weather Summary

 TemperatureHumidityPressure
High75 °F (Oct 19, 3:20 PM)100% (Oct 11, 6:20 AM)30.27 "Hg (Oct 11, 6:20 AM)
Low37 °F (Oct 24, 4:50 AM)50% (Oct 19, 3:50 PM)29.65 "Hg (Oct 21, 6:20 PM)
Average55 °F85%30.01 "Hg
* Reported Oct 11 6:20 AM — Oct 26 5:20 AM, Sindelfingen, Weather by CustomWeather, © 2014

Note: Actual official high and low records may vary slightly from our data, if they occured in-between our weather recording intervals... More about our weather records

Advertising

Sindelfingen weather history for previous 24 hours

 ConditionsComfort  
Time TempWeatherWind HumidityBarometerVisibility
5:20 AM
Oct 26
50 °FPartly cloudy.1 mph94%30.27 "HgN/A
4:50 AM48 °FPassing clouds.1 mph100%30.27 "HgN/A
4:20 AM50 °FPassing clouds.1 mph94%30.27 "HgN/A
3:50 AM50 °FClear.1 mph94%30.27 "Hg10 mi
3:20 AM50 °FClear.1 mph94%30.27 "Hg10 mi
2:50 AM50 °FPassing clouds.No wind94%30.27 "HgN/A
2:20 AM50 °FPassing clouds.1 mph94%30.27 "HgN/A
2:50 AM50 °FPartly cloudy.2 mph94%30.27 "HgN/A
2:20 AM50 °FPassing clouds.1 mph94%30.27 "HgN/A
1:50 AM50 °FPassing clouds.1 mph94%30.27 "HgN/A
1:20 AM52 °FPassing clouds.1 mph88%30.27 "HgN/A
12:50 AM52 °FPassing clouds.1 mph88%30.24 "HgN/A
12:20 AM52 °FPassing clouds.1 mph88%30.24 "HgN/A
11:50 PM
Oct 25
52 °FPassing clouds.2 mph88%30.24 "HgN/A
11:20 PM52 °FPassing clouds.2 mph88%30.24 "HgN/A
10:50 PM52 °FPassing clouds.1 mph82%30.24 "HgN/A
10:20 PM52 °FPassing clouds.1 mph82%30.21 "HgN/A
9:50 PM54 °FPassing clouds.1 mph77%30.21 "HgN/A
9:20 PM52 °FPassing clouds.1 mph88%30.21 "HgN/A
8:50 PM54 °FPassing clouds.1 mph77%30.21 "HgN/A
8:20 PM54 °FPassing clouds.1 mph77%30.21 "HgN/A
7:50 PM54 °FPassing clouds.1 mph77%30.18 "HgN/A
7:20 PM54 °FPassing clouds.1 mph77%30.18 "HgN/A
6:50 PM54 °FPartly sunny.2 mph82%30.18 "HgN/A
6:20 PM54 °FBroken clouds.3 mph82%30.18 "HgN/A
5:50 PM54 °FPartly sunny.3 mph82%30.15 "HgN/A
5:20 PM55 °FPartly sunny.3 mph77%30.15 "HgN/A
4:50 PM55 °FPartly sunny.3 mph72%30.15 "HgN/A
4:20 PM55 °FPartly sunny.3 mph72%30.15 "HgN/A
3:50 PM55 °FPartly sunny.5 mph72%30.15 "HgN/A
3:20 PM55 °FPartly sunny.7 mph72%30.15 "HgN/A
2:50 PM55 °FPartly sunny.5 mph72%30.15 "HgN/A
2:20 PM55 °FPartly sunny.2 mph72%30.15 "HgN/A
1:50 PM55 °FPartly sunny.1 mph72%30.15 "HgN/A
1:20 PM55 °FPartly sunny.2 mph72%30.15 "HgN/A
12:50 PM54 °FBroken clouds.1 mph82%30.15 "HgN/A
12:20 PM52 °FPartly sunny.2 mph82%30.15 "HgN/A
11:50 AM52 °FBroken clouds.No wind82%30.15 "HgN/A
11:20 AM50 °FPartly sunny.2 mph82%30.15 "HgN/A
10:50 AM50 °FPartly sunny.3 mph82%30.15 "HgN/A
10:20 AM48 °FBroken clouds.3 mph87%30.15 "HgN/A
9:50 AM46 °FSunny.2 mph93%30.12 "Hg10 mi
9:20 AM45 °FSunny.3 mph100%30.12 "Hg10 mi
8:50 AM45 °FClear.1 mph93%30.12 "Hg10 mi
8:20 AM45 °FClear.2 mph93%30.12 "Hg10 mi
7:50 AM45 °FClear.2 mph93%30.12 "Hg10 mi
7:20 AM43 °FClear.2 mph100%30.09 "Hg10 mi
6:50 AM45 °FPartly cloudy.1 mph93%30.09 "HgN/A
6:20 AM43 °FLight rain. Partly cloudy.2 mph100%30.09 "HgN/A
Weather by CustomWeather, © 2014

See weather overviewHow to use our weather pages